STARLINK-32271, 60368

Orbit data source: Space-Track

STARLINK-32271, 60368 is a payload satellite owned by SpaceX/Seattle (US) in LEO that was launched on Sun, 04 Aug 2024 UTC via an FALCON 9 launch vehicle from the Air Force Western Test Range (AFWTR). Payload-class satellites include a variety of spacecraft equipped with specific instruments for various scientific and technological missions. These include communications satellites like Starlink; space stations such as the ISS; scientific satellites like the Hubble; Earth observation satellites from companies like Planet Labs, Umbra, and HawkEye 360; GPS; miniature CubeSats for education and research; and military/defense satellites.

Loading next visibility...
Identifier
60368, 2024-138P
Orbit
LEO
Last TLE update
11 hours ago
Origin
Manufacturer
SpaceX/Seattle
Mission
Operational Commercial Communications
Bus & Motor
STARLINK V2M, Unknown motor
Mass
730 kg wet, ~700 kg dry
Launch date (UTC)
2024-08-04 (11 months ago)
Launch vehicle
FALCON 9
Launch site
Air Force Western Test Range (AFWTR)
Object type
Payload
Rocket body
Debris
Shape & HBR
Box + 2 Pan, 29 m
Radar Cross Section
33.884 m², Large (>1 m²)

Expand to show TLE details & history

TLE from 11 hours ago
0 STARLINK-32271
1 60368U 24138P   25181.90146572 -.00000159  00000-0  67415-5 0  9996
2 60368  53.1611  39.4258 0001180  95.4786 264.6349 15.30195344 52075
Epoch: 2025-06-30T21:38Z
TLE epoch observation values (Epoch: 2025-06-30T21:38:06.638Z)
Latitude
-0.00004°
Longitude
155.69349°
Altitude
476.205 km
Speed
7.629 km/s
True Right ascension
02h 37m 42s
True Declination
0° 00' 00"
Sunlit
Object was in daylight at epoch
Visualization orbit readout
Latitude
46.41878°
Longitude
-78.05065°
Altitude
479.466 km
Speed
7.632 km/s
Apparent Right ascension
09h 52m 34s
Apparent Declination
5° 25' 32"
Sunlit
Object is in daylight
Visualization observer readout
Local Sidereal Time
20:44:50
Azimuth
337.015° NNW
Elevation
-42.049°
Doppler factor
1
Orbital elements
Apogee altitude
476.294 km
Perigee altitude
474.676 km
Semi-major axis
6,853.622 km
Eccentricity
0.00012
Inclination
53.1611°
RAAN
39.4258°
Arg. of periapsis
95.4786°
True anomaly
Unknown
Mean anomaly
264.6349°
Eccentric anomaly
Unknown
Mean motion
3.82528 °/min
Orbital period
94.11 mins
BSTAR
0.0000067415
Loading maneuver chart data...
Loading SW <> Apogee altitude chart data...
Loading historical data...
Loading historical data...
Loading historical data...
Loading historical data...
Loading historical data...
Loading historical data...
Loading historical data...

STARLINK-32271 Visibility forecast

Observer location: undefined°, undefined°

Span
Click to sort rows by Start time (UTC) header in descending order
Start Az.
Max El. time (UTC)
Max El. Az.
Max El.
End time (UTC)
End Az.
5 mins2025-07-01 16:36:36.785Z195.612° SSW2025-07-01 16:39:36.785Z116.707° SE30.226°2025-07-01 16:41:36.785Z72.712° E
4 mins2025-07-01 18:15:36.785Z288.283° WNW2025-07-01 18:17:36.785Z344.822° N25.485°2025-07-01 18:19:36.785Z25.383° NE
4 mins2025-07-01 23:12:36.785Z346.044° N2025-07-01 23:13:36.785Z13.77° NNE28.988°2025-07-01 23:16:36.785Z93.056° ESE
4 mins2025-07-02 00:50:36.785Z264.569° W2025-07-02 00:51:36.785Z238.115° WSW25.214°2025-07-02 00:54:36.785Z172.162° S
|